Location: ??????????
(31.2156°N, 29.9553°E)
Time: 08:36:46
(UTC+00:00)

Cosmos 1271 Rocket - Pass Details

Date: 03 March 2021
Orbit: 498 x 544 km, 81.2° (Epoch: 15 April)

Event Time Altitude Azimuth Distance (km) Brightness Sun altitude
Rises 16:58:26 0° 341° (NNW) 2,592 6.5 -13.3°
Reaches altitude 10° 17:00:40 10° 332° (NNW) 1,708 5.7 -13.8°
Maximum altitude 17:04:04 34° 267° (W) 850 4.5 -14.5°
Drops below altitude 10° 17:07:29 10° 201° (SSW) 1,713 5.6 -15.2°
Sets 17:09:44 0° 192° (SSW) 2,601 6.4 -15.7°
